Location: Unspecified
(42.3650°N, 71.1030°W)
Time: 16:06:38
(UTC+00:00)

S-56A Canister/Altair - Pass Details

Date: 29 June 2024
Orbit: 638 x 2487 km, 38.9° (Epoch: 20 July)

Event Time Altitude Azimuth Distance (km) Brightness Sun altitude
Rises 06:03:47 0° 281° (WNW) 5,019 11.6 -22.1°
Reaches altitude 10° 06:07:17 10° 272° (W) 4,276 11.1 -21.9°
Maximum altitude 06:17:14 31° 217° (SW) 3,403 10.2 -21.3°
Enters shadow 06:22:25 25° 185° (S) 3,900 10.5 -20.9°
Exits shadow 06:26:34 16° 169° (S) 4,607 11.0 -20.6°
Drops below altitude 10° 06:29:11 10° 163° (SSE) 5,128 11.3 -20.4°
Sets 06:33:56 0° 154° (SSE) 6,142 11.8 -20.0°
